Location: Sternwarte Stuttgart
(48.7670°N, 9.1830°E)
Time: 23:12:08
(UTC+01:00)

Cosmos 2263 - Pass Details

Date: 24 January 2019
Orbit: 832 x 865 km, 70.9° (Epoch: 18 February)

Event Time Altitude Azimuth Distance (km) Brightness Sun altitude
Exits shadow 05:13:06 67° 359° (N) 901 4.2 -27.8°
Drops below altitude 10° 05:18:03 10° 26° (NNE) 2,451 6.9 -27.0°
Sets 05:20:30 0° 28° (NNE) 3,389 7.7 -26.6°
